Location: Antoign�
(47.0844°N, 0.1131°W)
Time: 19:49:46
(UTC+00:00)

Cosmos 1666 - Pass Details

Date: 03 March 2021
Orbit: 497 x 518 km, 82.5° (Epoch: 14 April)

Event Time Altitude Azimuth Distance (km) Brightness Sun altitude
Rises 18:29:04 0° 145° (SE) 2,575 5.9 -7.6°
Reaches altitude 10° 18:31:52 10° 121° (ESE) 1,700 4.8 -8.1°
Maximum altitude 18:34:01 15° 86° (E) 1,426 4.3 -8.5°
Drops below altitude 10° 18:36:10 10° 50° (NE) 1,712 4.9 -8.8°
Sets 18:39:01 0° 27° (NNE) 2,606 6.0 -9.3°
